Regional Weather Roundup
Issued by NWS

Home | Current Version | Previous Version | Text Only | Print | Product List | Glossary On
Versions: 1 2 3 4 5 6 7 8 9 10 11 12 13 14 15 16 17 18 19 20 21 22 23 24 25 26 27 28 29 30 31 32 33 34 35 36 37 38 39 40 41 42 43 44 45 46 47 48 49 50
000
ASUS44 KJAN 010210
RWRMS

MISSISSIPPI HOURLY WEATHER ROUNDUP
NATIONAL WEATHER SERVICE JACKSON MS
900 PM CDT SAT APR 30 2016

NOTE: "FAIR: INDICATES FEW OR NO CLOUDS BELOW 12,000 FEET WITH NO
SIGNIFICANT WEATHER AND/OR OBSTRUCTIONS TO VISIBILITY.

MSZ001>002-007>008-010>013-018>021-025>028-034>036-010300-
NORTHWEST MISSISSIPPI

CITY           SKY/WX    TMP DP  RH WIND       PRES   REMARKS
BATESVILLE     FAIR      65  64  96 CALM      29.83R FOG
CLEVELAND      CLOUDY    73  69  89 SE7       29.81R
GREENWOOD      CLEAR     68  63  84 S7        29.82R
GREENVILLE     CLOUDY    74  65  73 SE13      29.80R
OLIVE BRANCH   MOCLDY    68  68 100 SE5       29.84R
OXFORD         FAIR      63  63 100 CALM      29.86R FOG
TUNICA         MOCLDY    70  64  83 SE5       29.83R
WINONA         FAIR      68  63  84 S5        29.83R
$$

MSZ003>006-009-014>017-022>024-029>033-037>039-010300-
NORTHEAST MISSISSIPPI

CITY           SKY/WX    TMP DP  RH WIND       PRES   REMARKS
COLUMBUS AFB   CLEAR     68  66  94 CALM      29.84R
CORINTH        CLOUDY    70  66  88 CALM      29.85R
GOLDN TRIANGLE CLEAR     70  64  83 S3        29.84R
STARKVILLE     FAIR      70  64  83 S8        29.84R
TUPELO         PTCLDY    71  67  87 CALM      29.83R
$$

MSZ040-058-010300-
CENTRAL MISSISSIPPI

CITY           SKY/WX    TMP DP  RH WIND       PRES   REMARKS
JACKSON INTL   CLEAR     66  63  90 SE7       29.85R
JACKSON HAWKNS CLEAR     67  63  87 SE7       29.85R
MADISON        FAIR      66  63  88 CALM      29.85R
MERIDIAN KEY   CLEAR     64  61  90 S5        29.87R
MERIDIAN NAS   CLEAR     67  60  78 S3        29.86R
VICKSBURG TVR  CLOUDY    73  66  78 SE12      29.83R
VICKSBURG VKS  CLOUDY    72  66  83 VRB5      29.84R
$$

MSZ059>079-010300-
SOUTH MISSISSIPPI

CITY           SKY/WX    TMP DP  RH WIND       PRES   REMARKS
BROOKHAVEN     FAIR     N/A N/A N/A SE6       29.86R
COLUMBIA       FAIR      66  64  94 SE6       29.91R
HATTIESBURG    CLOUDY    67  63  87 SE5       29.89R
MCCOMB         MOCLDY    67  66  97 S9        29.85R
NATCHEZ        CLOUDY    72  64  78 S10       29.83R
PINE BELT      PTCLDY    64  61  88 SE6       29.89R
$$

MSZ080>082-010300-
COASTAL MISSISSIPPI

CITY           SKY/WX    TMP DP  RH WIND       PRES   REMARKS
BAY ST LOUIS   PTCLDY    66  63  88 CALM      29.88R
BILOXI         CLOUDY    74  68  80 S12       29.89R
PASCAGOULA     CLOUDY    70  67  90 NW12      29.88R
GULFPORT       CLOUDY    74  65  73 S10       29.89R
$$



USA.gov is the U.S. government's official web portal to all federal, state and local government web resources and services.